Regional Weather Roundup
Issued by NWS

Home | Current Version | Previous Version | Text Only | Print | Product List | Glossary Off
Versions: 1 2 3 4 5 6 7 8 9 10 11 12 13 14 15 16 17 18 19 20 21 22 23 24 25 26 27 28 29 30 31 32 33 34 35 36 37 38 39 40 41 42 43 44 45 46 47 48 49 50

000
ASUS43 KMKX 290111
RWRWI

WISCONSIN REGIONAL WEATHER ROUNDUP
NATIONAL WEATHER SERVICE MILWAUKEE/SULLIVAN WI
700 PM CST SUN DEC 28 2014

NOTE: "FAIR" INDICATES FEW OR NO CLOUDS BELOW 12,000 FEET WITH NO
SIGNIFICANT WEATHER AND/OR OBSTRUCTIONS TO VISIBILITY.

WIZ001-002-006>008-014>016-023>028-290200-
NORTHWEST WISCONSIN

CITY           SKY/WX    TMP DP  RH WIND       PRES   REMARKS
SUPERIOR ARPT  CLEAR      9  -1  63 NW5       30.33R WCI   0
ASHLAND        CLEAR      2  -2  83 W5        30.29R WCI  -8
HAYWARD        CLEAR      0  -3  87 CALM      30.26R
SIREN          CLEAR      1  -2  86 CALM      30.29R
CUMBERLAND     CLEAR      5  -4  66 N6        30.25R WCI  -6
RICE LAKE      CLEAR      9   0  68 NW5       30.28R WCI   1
CHETEK         CLEAR      5   3  90 CALM      30.26R
LADYSMITH      FAIR       2  -1  85 NW5       30.26R WCI  -7
EAU CLAIRE     FOG        7   4  87 N3        30.25S VSB 1
MENOMONIE      CLEAR     11   8  90 CALM      30.26R FOG
NEW RICHMOND   CLEAR      3  -1  83 NE5       30.27R WCI  -6
OSCEOLA        CLEAR     10   5  80 N3        30.31R
$$

WIZ003>005-009-010-017-018-290200-
NORTH CENTRAL WISCONSIN

CITY           SKY/WX    TMP DP  RH WIND       PRES   REMARKS
MANITOWISH WTR   N/A     -5  -8  88 CALM      30.19R FOG
ARBOR VITAE    PTCLDY     4   1  86 CALM      30.19R
WOODRUFF       PTCLDY     4   1  86 CALM      30.19R
RHINELANDER    CLEAR      6   3  87 NW5       30.18R WCI  -3
EAGLE RIVER    CLEAR      3  -1  81 NW3       30.18R
LAND O LAKES   CLEAR      0  -3  87 CALM      30.18R
PHILLIPS       CLEAR      0  -2  90 CALM      30.21R
TOMAHAWK       CLEAR      6   4  89 CALM      30.21R
MEDFORD        CLEAR      6   3  88 N3        30.20R
MERRILL        CLEAR     12   8  84 N5        30.21R WCI   4
$$

WIZ029-030-035-036-043>047-290200-
CENTRAL WISCONSIN

CITY           SKY/WX    TMP DP  RH WIND       PRES   REMARKS
WAUSAU         CLEAR     13  10  88 NW6       30.20R WCI   4
MOSINEE        CLEAR     14  12  92 W7        30.22R WCI   4
MARSHFIELD     CLEAR     12   8  84 NW5       30.22R WCI   4
STEVENS POINT  CLOUDY    17  13  86 NW5       30.23R WCI  10
WAUPACA        CLOUDY    25  17  72 NW7       30.23R WCI  17
WAUTOMA        MOCLDY    24  18  78 N9        30.23R WCI  14
WISC RAPIDS    MOCLDY    19  12  74 N7        30.24R WCI  10
CAMP DOUGLAS   CLOUDY    21  21 100 N9        30.23R WCI  11
$$

WIZ011>013-019>022-031-037>040-048>050-290200-
NORTHEAST WISCONSIN

CITY           SKY/WX    TMP DP  RH WIND       PRES   REMARKS
ANTIGO         CLEAR      8   5  88 N5        30.19R WCI  -1
SHAWANO        CLOUDY    24  18  78 W3        30.23R
OCONTO         CLOUDY    22  12  64 N6        30.22R WCI  15
STURGEON BAY   CLOUDY    21   7  53 NW13      30.22R WCI   9
GREEN BAY      CLOUDY    25  18  74 NW7       30.22R WCI  17
MANITOWOC      FLURRIES  27  21  78 N10       30.21R WCI  17
APPLETON       CLOUDY    25  18  74 NW9       30.21R WCI  15
CLINTONVILLE   CLOUDY    23  18  80 NW8       30.22R WCI  14
OSHKOSH        CLOUDY    27  18  69 NW12      30.20R WCI  17
$$

WIZ032>034-041-042-053>061-290200-
SOUTHWEST WISCONSIN

CITY           SKY/WX    TMP DP  RH WIND       PRES   REMARKS
LA CROSSE      MOCLDY    22  15  75 N9        30.25R WCI  12
SPARTA         MOCLDY    22  16  79 N7        30.25R WCI  13
VIROQUA        CLOUDY    24  20  85 N8        30.19R WCI  15
BOSCOBEL       CLEAR     21  17  84 CALM      30.21S
PRAIRIE DU CHI CLEAR     25  20  80 CALM      30.21R
PLATTEVILLE    CLEAR     25  19  76 CALM      30.19S
$$

WIZ056-057-062-063-064-067-068-290200-
SOUTH CENTRAL WISCONSIN

CITY           SKY/WX    TMP DP  RH WIND       PRES   REMARKS
REEDSBURG      CLOUDY    28  19  69 NW7       30.20R WCI  21
BARABOO/DELLS  CLOUDY    28  19  69 N7        30.19R WCI  21
LONE ROCK      CLOUDY    33  19  56 VRB3      30.21R
MINERAL POINT  CLEAR     28  21  74 CALM      30.17S
MADISON        PTCLDY    25  19  78 N3        30.19R
MIDDLETON      PTCLDY    24  20  85 CALM      30.20R
WATERTOWN      MOCLDY    21  19  89 CALM      30.19R
MONROE         CLEAR     27  18  69 NW7       30.18R WCI  19
JANESVILLE     CLEAR     27  19  74 CALM      30.19R
$$

WIZ051-052-058>065-066-070>072-290200-
SOUTHEAST WISCONSIN

CITY           SKY/WX    TMP DP  RH WIND       PRES   REMARKS
MILWAUKEE      CLEAR     28  17  63 NW3       30.20R
WAUKESHA       CLEAR     23  18  80 NW5       30.19R WCI  17
MILWAUKEE/TIMM CLEAR     25  18  74 CALM      30.20R
RACINE         CLEAR     28  18  66 N5        30.21R WCI  23
BURLINGTON     CLEAR     21  18  88 CALM      30.19R
KENOSHA        CLEAR     28  19  69 N3        30.19R
FOND DU LAC    CLOUDY    28  20  71 NW5       30.19R WCI  23
SHEBOYGAN      CLOUDY    27  19  72 CALM      30.20R
WEST BEND      PTCLDY    23  19  86 CALM      30.20R
JUNEAU         CLOUDY    25  19  78 CALM      30.20R
$$

LSZ147-162-290200-
LAKE SUPERIOR

STATION/POSITION TIME  TEMP    WIND        PRES    WAVE
                       AIR SEA DIR/SP/G            HT/PER
                 (UTC) (F)     (DEG/KT/KT) (MB)    (FT/S)
DEVILS ISLAND    0100   13     300/ 15/ 17 1027.1R
PORT WING        0000   15     320/ 12/ 16 1025.4
SAXON HARBOR     0000   13     230/  4/  9 1025.1R
$$

LMZ867-665-643>646-290200-
LAKE MICHIGAN

STATION/POSITION TIME  TEMP    WIND        PRES    WAVE
                       AIR SEA DIR/SP/G            HT/PER
                 (UTC) (F)     (DEG/KT/KT) (MB)    (FT/S)
CHAMBERS ISLAND  0000   23     270/  7/ 12 1022.4R
NORTHPORT PIER   0007   24     330/ 15/ 18 1022.0R
SISTER BAY       0028          330/ 19/ 22   N/A
ALGOMA LAKESHORE 0015          330/ 12/ 16   N/A
KEWAUNEE LAKESHO 0000   26     310/  5/ 10 1021.4R
SHEBOYGAN LAKESH 0100   28 37  330/  3/  3 1024.0R
PORT WASHINGTON  0000   28     300/  2/  3 1023.0
MILWAUKEE LAKESH 0000   30     320/  5/  8   N/A
KENOSHA   LAKESH 0100   30     330/  5/  6 1022.4R
$$

TC  - TEMPERATURE IN CELSIUS
VSB - VISIBILITY IN STATUTE MILES
WCI - WIND CHILL INDEX
HX  - HEAT INDEX




USA.gov is the U.S. government's official web portal to all federal, state and local government web resources and services.